Weather Service Report


538 
ASUS45 KREV 250610
RWRNV 
NEVADA REGIONAL WEATHER ROUNDUP
NATIONAL WEATHER SERVICE RENO NV
1000 PM PST FRI FEB 24 2017

NOTE: "FAIR" INDICATES FEW OR NO CLOUDS BELOW 12,000 FEET WITH NO
SIGNIFICANT WEATHER AND/OR OBSTRUCTIONS TO VISIBILITY.

NVZ001-003-004-250700-
WESTERN NEVADA
  
CITY           SKY/WX    TMP DP  RH WIND       PRES   REMARKS
RENO           MOCLDY    31  16  54 W6        30.08S                  
6HR MIN TEMP:  31; 6HR MAX TEMP:  39;                                

CARSON CITY    CLOUDY    32  12  43 SW5       30.08F                  
MINDEN         FAIR      25  19  80 E6        30.08F                  
PYRAMID LAKE     N/A     34 N/A N/A SW12        N/A                   
FALLON         MOCLDY    29  19  66 NE3       30.09S                  
6HR MIN TEMP:  29; 6HR MAX TEMP:  39;                                

LOVELOCK       CLOUDY    29  22  75 CALM      30.09S                  
6HR MIN TEMP:  27; 6HR MAX TEMP:  35;                                

HAWTHORNE      PTCLDY    32  14  47 CALM      30.08S                  
$$

NVZ002-CAZ072-073-250700-
NORTHERN AND CENTRAL SIERRA
  
CITY           SKY/WX    TMP DP  RH WIND       PRES   REMARKS
S. LAKE TAHOE  PTCLDY    23  12  62 S12G18    30.04S                  
6HR MIN TEMP:  23; 6HR MAX TEMP:  28;                                

TRUCKEE        PTCLDY    19  10  68 S8        30.07S                  
SQUAW VLY 8000   N/A     16  16 100 S14         N/A                   
MAMMOTH LAKES  FAIR      17   6  64 CALM      30.04S                  
6HR MIN TEMP:  14; 6HR MAX TEMP:  29;                                

BRIDGEPORT       N/A     17   3  54 VRB3      29.99R                  
$$

NVZ030-031-036-250700-
NORTHERN NEVADA
  
CITY           SKY/WX    TMP DP  RH WIND       PRES   REMARKS
ELKO           CLEAR     20  13  74 CALM      30.08R                  
6HR MIN TEMP:  20; 6HR MAX TEMP:  30;                                

WINNEMUCCA     NOT AVBL                                               
WENDOVER       CLEAR     23  10  58 CALM      30.13S                  
$$

NVZ035-037-250700-
CENTRAL NEVADA
  
CITY           SKY/WX    TMP DP  RH WIND       PRES   REMARKS
ELY            CLEAR      5  -1  76 S14       30.06S WCI -12          
6HR MIN TEMP:   4; 6HR MAX TEMP:  27;                                

EUREKA           N/A     17  10  74 CALM      30.05S                  
6HR MIN TEMP:  17; 6HR MAX TEMP:  31;                                

$$

NVZ013-014-250700-
SOUTH CENTRAL NEVADA
  
CITY           SKY/WX    TMP DP  RH WIND       PRES   REMARKS
TONOPAH        PTCLDY    24  16  71 CALM      30.07R                  
6HR MIN TEMP:  24; 6HR MAX TEMP:  35;                                

$$

NVZ017-020-022-250700-
SOUTHERN NEVADA
  
CITY           SKY/WX    TMP DP  RH WIND       PRES   REMARKS
LAS VEGAS      CLEAR     45  12  26 E3        30.12S                  
6HR MIN TEMP:  45; 6HR MAX TEMP:  54;                                

N. LAS VEGAS   CLEAR     45  15  30 CALM      30.13S                  
6HR MIN TEMP:  44; 6HR MAX TEMP:  53;                                

NELLIS AFB     CLEAR     42  20  41 NE8       30.13F                  
6HR MIN TEMP:  42; 6HR MAX TEMP:  53;                                

HENDERSON      CLEAR     40  20  44 S7        30.15S                  
6HR MIN TEMP:  40; 6HR MAX TEMP:  53;                                

MERCURY        CLEAR     34  20  56 CALM      30.10S                  
6HR MIN TEMP:  32; 6HR MAX TEMP:  47;                                

$$
  

Return to Home page


Western Regional Climate Center, wrcc@dri.edu